DELTA 1 DEB, 10645

Orbit data source: Space-Track

DELTA 1 DEB, 10645 is space debris in LEO originally from a launch on Thu, 29 Jul 1976 UTC launched from the Air Force Western Test Range (AFWTR). Debris objects in space refer to the collection of defunct objects orbiting the Earth. Examples of debris include non-operational satellites, rocket bodies, and fragments generated from explosions, collisions, or faulty payload assembly.

Loading next visibility...
Identifier
10645, 1976-077F
Orbit
LEO
Country
Flag of USUS
Related business
Manufacturer
Unknown
Mission
Spacecraft
Bus & Motor
Unknown
Mass
Unknown
Launch date (UTC)
1976-07-29 (50 years ago)
Launch vehicle
Unknown
Launch site
Air Force Western Test Range (AFWTR)
Object type
Payload
Rocket body
Debris
Shape & HBR
Unknown shape, 0.2 m
Radar Cross Section
Medium (>0.1 m² and <1 m²)

Expand to show TLE details & history
Last TLE update: 1 day ago

TLE from 1 day ago
0 DELTA 1 DEB
1 10645U 76077F   26105.49544171 -.00000061  00000-0 -21769-3 0  9999
2 10645 102.4071   7.8826 0224259 320.9830 228.1049 11.99211488147173
Epoch: 2026-04-15T11:53Z
TLE epoch observation values (Epoch: 2026-04-15T11:53:26.163Z)
Latitude
-7.17886°
Longitude
164.28672°
Altitude
1,811.043 km
Speed
6.924 km/s
True Right ascension
12h 25m 12s
True Declination
-7° 08' 31"
Sunlit
Object was in full shadow at epoch
Visualization orbit readout
Latitude
Unknown
Longitude
Unknown
Altitude
Unknown
Speed
Unknown
Apparent Right ascension
Unknown
Apparent Declination
Unknown
Sunlit
N/A
Visualization observer readout
Local Sidereal Time
18:05:37
Azimuth
Unknown
Elevation
Unknown
Doppler factor
Unknown
Orbital elements
Apogee altitude
1,862.8 km
Perigee altitude
1,501.286 km
Semi-major axis
8,060.18 km
Eccentricity
0.02243
Inclination
102.4071°
RAAN
7.8826°
Arg. of periapsis
320.983°
True anomaly
226.22752°
Mean anomaly
228.1049°
Eccentric anomaly
227.16269°
Mean motion
2.99934 °/min
Orbital period
120.03 mins
BSTAR
-0.00021769
Loading maneuver chart data...
Computing Atmospheric mass density...
Loading historical data...
Loading historical data...
Loading historical data...
Loading historical data...
Loading historical data...
Loading historical data...
Loading historical data...

Documentation

Showing up to 5 results
|